Home   Weather   Poprad   Past weeks
Flag for Slovakia

Past Weather in Poprad, Slovakia — Yesterday and Last 2 Weeks

Now
45 °F

Passing clouds.


Feels Like: 42 °F
Forecast: 63 / 44 °F
Wind: 5 mph from West

Location: Poprad / Tatry

Current Time: Oct 18, 2019 at 1:19:32 am

Latest Report: Oct 18, 2019 at 12:30 am


Visibility: N/A

Pressure: 30.09 "Hg (27.73 "Hg at 670m altitude)

Humidity: 93%

Dew Point: 43 °F

Location of PopradLocation

Past Weather in Poprad — Graph

°F

Poprad Temperature Yesterday

Maximum temperature yesterday: 63 °F (at 2:30 pm)
Minimum temperature yesterday: 37 °F (at 7:00 am)
Average temperature yesterday: 48 °F

High & Low Weather Summary for the Past Weeks

 TemperatureHumidityPressure
High72 °F (Oct 15, 1:30 pm)100% (Oct 3, 12:00 am)30.21 "Hg (Oct 3, 12:00 am)
Low23 °F (Oct 8, 4:00 am)38% (Oct 12, 2:30 pm)29.68 "Hg (Oct 3, 12:00 am)
Average47 °F77%30.00 "Hg
* Reported Oct 3 12:00 am — Oct 18 12:00 am, Poprad. Weather by CustomWeather, © 2019

Note: Actual official high and low records may vary slightly from our data, if they occured in-between our weather recording intervals... More about our weather records

Advertising

Poprad Weather History for the Previous 24 Hours

Scroll right to see more
 ConditionsComfort  
Time TempWeatherWind HumidityBarometerVisibility
12:00 am
Fri, Oct 18
43 °FPassing clouds.5 mph87%30.09 "HgN/A
11:30 pm
Thu, Oct 17
46 °FPassing clouds.7 mph87%30.09 "HgN/A
11:00 pm43 °FPassing clouds.3 mph93%30.09 "HgN/A
10:30 pm46 °FPassing clouds.3 mph82%30.09 "HgN/A
10:00 pm46 °FPassing clouds.5 mph87%30.09 "HgN/A
9:30 pm45 °FPassing clouds.3 mph93%30.09 "HgN/A
9:00 pm45 °FPassing clouds.2 mph93%30.09 "HgN/A
8:30 pm45 °FPassing clouds.2 mph93%30.09 "HgN/A
8:00 pm43 °FPassing clouds.5 mph93%30.09 "HgN/A
7:30 pm46 °FPassing clouds.7 mph87%30.09 "HgN/A
7:00 pm48 °FPassing clouds.5 mph87%30.09 "HgN/A
6:30 pm48 °FPassing clouds.5 mph87%30.09 "HgN/A
4:30 pm63 °FSunny.2 mph59%30.09 "Hg10 mi
4:00 pm63 °FPassing clouds.3 mph56%30.09 "HgN/A
3:30 pm63 °FPassing clouds.3 mph56%30.09 "HgN/A
3:00 pm63 °FSunny.2 mph56%30.09 "Hg10 mi
2:30 pm63 °FSunny.2 mph56%30.09 "Hg10 mi
2:00 pm61 °FPassing clouds.3 mph55%30.09 "HgN/A
1:30 pm61 °FSunny.2 mph55%30.09 "Hg10 mi
1:00 pm59 °FPassing clouds.6 mph59%30.12 "HgN/A
12:30 pm59 °FPassing clouds.6 mph63%30.12 "HgN/A
12:00 pm57 °FPassing clouds.3 mph63%30.12 "HgN/A
11:30 am54 °FPassing clouds.5 mph72%30.12 "HgN/A
11:00 am54 °FPassing clouds.3 mph77%30.12 "HgN/A
10:30 am50 °FPassing clouds.1 mph82%30.12 "HgN/A
10:00 am46 °FLight fog.3 mph93%30.12 "HgN/A
9:39 am45 °FScattered clouds.2 mph100%30.12 "Hg2 mi
9:13 am43 °FFog.2 mph100%30.12 "Hg0 mi
9:00 am43 °FFog.2 mph100%30.12 "Hg0 mi
8:33 am43 °FFog.3 mph93%30.12 "Hg0 mi
8:01 am41 °FFog.3 mph93%30.12 "Hg0 mi
7:30 am37 °FLight fog.7 mph93%30.12 "Hg2 mi
7:00 am37 °FLight fog.6 mph100%30.09 "Hg3 mi
6:30 am41 °FLight fog.8 mph93%30.09 "Hg4 mi
6:00 am39 °FLight fog.8 mph100%30.09 "Hg3 mi
5:30 am41 °FFog.9 mph93%30.09 "Hg3 mi
5:00 am43 °FFog.8 mph93%30.09 "Hg1 mi
4:30 am43 °FFog.14 mph100%30.09 "Hg1 mi
4:00 am43 °FPassing clouds.8 mph100%30.09 "HgN/A
3:30 am43 °FPassing clouds.9 mph93%30.09 "HgN/A
3:00 am45 °FPassing clouds.10 mph93%30.09 "HgN/A
2:30 am46 °FPassing clouds.9 mph93%30.09 "HgN/A
2:00 am46 °FPassing clouds.10 mph93%30.09 "HgN/A
1:30 am46 °FPassing clouds.9 mph93%30.09 "HgN/A
1:00 am48 °FPassing clouds.10 mph87%30.09 "HgN/A
Weather by CustomWeather, © 2019

See weather overview